TimeMST,TemperatureF,Dew PointF,Humidity,Sea Level PressureIn,VisibilityMPH,Wind Direction,Wind SpeedMPH,Gust SpeedMPH,PrecipitationIn,Events,Conditions,WindDirDegrees,DateUTC
12:53 AM,17.1,14.0,88,30.05,10.0,West,9.2,-,N/A,,Clear,270,2013-02-18 07:53:00
1:53 AM,16.0,12.9,88,30.06,10.0,WSW,8.1,-,N/A,,Partly Cloudy,250,2013-02-18 08:53:00
2:53 AM,17.1,14.0,88,30.06,10.0,WSW,6.9,-,N/A,,Overcast,240,2013-02-18 09:53:00
3:53 AM,12.9,12.0,96,30.09,10.0,SE,3.5,-,N/A,,Clear,130,2013-02-18 10:53:00
4:53 AM,14.0,12.0,92,30.11,10.0,Calm,Calm,-,N/A,,Scattered Clouds,0,2013-02-18 11:53:00
5:53 AM,18.0,15.1,88,30.11,10.0,South,6.9,-,N/A,,Overcast,180,2013-02-18 12:53:00
6:43 AM,19.4,17.6,93,29.99,1.8,SW,4.6,-,0.00,Snow,Light Snow,220,2013-02-18 13:43:00
6:53 AM,19.9,17.1,89,30.13,3.0,Calm,Calm,-,0.00,Snow,Light Snow,0,2013-02-18 13:53:00
7:43 AM,19.4,17.6,93,30.01,7.0,SSW,6.9,-,0.00,Snow,Light Snow,210,2013-02-18 14:43:00
7:53 AM,19.9,18.0,92,30.15,9.0,SSW,5.8,-,0.00,,Overcast,210,2013-02-18 14:53:00
8:53 AM,21.9,19.9,92,30.17,9.0,SSW,3.5,-,0.00,Snow,Light Snow,200,2013-02-18 15:53:00
9:53 AM,27.0,19.9,75,30.16,10.0,Calm,Calm,-,0.00,,Overcast,0,2013-02-18 16:53:00
10:53 AM,28.0,21.0,75,30.17,10.0,Calm,Calm,-,N/A,,Mostly Cloudy,0,2013-02-18 17:53:00
11:53 AM,32.0,21.0,64,30.18,10.0,North,5.8,-,0.00,Snow,Light Snow,350,2013-02-18 18:53:00
12:53 PM,30.9,19.9,64,30.18,10.0,NNW,8.1,-,0.00,,Mostly Cloudy,330,2013-02-18 19:53:00
1:53 PM,32.0,19.0,59,30.17,10.0,NNW,6.9,-,N/A,,Clear,340,2013-02-18 20:53:00
2:53 PM,32.0,16.0,52,30.16,10.0,Calm,Calm,-,N/A,,Clear,0,2013-02-18 21:53:00
3:53 PM,32.0,17.1,54,30.17,10.0,East,3.5,-,N/A,,Clear,90,2013-02-18 22:53:00
4:53 PM,30.9,18.0,59,30.17,10.0,Calm,Calm,-,N/A,,Clear,0,2013-02-18 23:53:00
5:53 PM,21.9,15.1,75,30.17,10.0,East,5.8,-,N/A,,Clear,100,2013-02-19 00:53:00
6:53 PM,19.9,15.1,81,30.16,10.0,ESE,10.4,-,N/A,,Clear,120,2013-02-19 01:53:00
7:53 PM,19.0,14.0,81,30.16,10.0,SE,9.2,-,N/A,,Clear,130,2013-02-19 02:53:00
8:53 PM,18.0,14.0,84,30.14,10.0,ESE,10.4,-,N/A,,Clear,120,2013-02-19 03:53:00
9:53 PM,16.0,12.9,88,30.14,10.0,Calm,Calm,-,N/A,,Clear,0,2013-02-19 04:53:00
10:53 PM,10.9,8.1,88,30.15,10.0,South,3.5,-,N/A,,Clear,170,2013-02-19 05:53:00
11:53 PM,10.9,8.1,88,30.12,10.0,SSE,5.8,-,N/A,,Clear,160,2013-02-19 06:53:00